Airfield :
LOGIN :

Register | Disclaimer

   EN    FR    IT 

 










Legend :    VFR   Marginal VFR   IFR   Intensive IFR   Very Intensive IFR
Visi :
Ceiling :
>= 8 km
>= 3000ft
5 to 8 km
1000 to 3000 ft
1500m to 5 km
500 to 1000 ft
800 to 1500m
200 to 500 ft
< 800m
< 200 ft
Symbols :   Thunderstorms  Fog  Heavy snow  Heavy precipitations  Wind > 20 kt
SIGMETs :     Misc.  Thunderstorms  Icing  Turbulence  Mountain Waves  Volcanic Ashes







- Airport Elevation : 1036 ft
- IATA code : ERF


EDDE - Erfurt

CURRENT METAR :
  • 202220Z 08004KT CAVOK 13/01 Q1027

EXPIRED METARs :
  • 202150Z 09004KT CAVOK 13/01 Q1027
  • 202120Z 11004KT CAVOK 13/02 Q1027
  • 202050Z 11005KT CAVOK 14/02 Q1027
  • 202020Z 09003KT CAVOK 14/02 Q1027
  • 201950Z 06003KT 030V110 CAVOK 14/03 Q1027 NOSIG

TAF TAF EDDE
Valid from the 20 at 18:00 until the 21 at 18:00 UTC


201700Z 2018/2118 05004KT CAVOK
BECMG 2111/2113 06009KT
No reported NOTAMs for that airfield.



MET'MAP, your aeronautical weather chart ! - Copyright ORBIFLY December 2007 - Disclaimer

ORBIFLY MET'MAP TEAM :

Programming & Development : Alexandra Zaïnal
Concept & Development : Baudouin d'Aumeries
Co-Development & Prog : Marc-Olivier Méhu
Technical & hardware support : Manuel Goepfert

Contact : metmap@orbifly.com




SOURCES & CREDITS :

   NOAA